Time,TemperatureF,DewpointF,PressureIn,WindDirection,WindDirectionDegrees,WindSpeedMPH,WindSpeedGustMPH,Humidity,HourlyPrecipIn,Conditions,Clouds,dailyrainin,SoftwareType,DateUTC
2013-09-14 00:02:00,67.5,60.9,0.00,South,180,3.8,6.9,79,0.00,,,0.00,WUHU216HW,2013-09-14 07:02:00,
2013-09-14 00:07:00,67.5,61.2,0.00,NNW,338,1.3,4.9,80,0.00,,,0.00,WUHU216HW,2013-09-14 07:07:00,
2013-09-14 00:12:00,67.3,61.0,0.00,NW,315,2.7,4.9,80,0.00,,,0.00,WUHU216HW,2013-09-14 07:12:00,
2013-09-14 00:17:00,67.3,61.0,0.00,NNW,338,2.2,5.8,80,0.00,,,0.00,WUHU216HW,2013-09-14 07:17:00,
2013-09-14 00:22:00,67.1,60.8,0.00,WNW,293,2.9,5.8,80,0.00,,,0.00,WUHU216HW,2013-09-14 07:22:00,
2013-09-14 00:27:00,67.1,60.8,0.00,NNW,338,1.3,7.4,80,0.00,,,0.00,WUHU216HW,2013-09-14 07:27:00,
2013-09-14 00:32:00,67.0,61.0,0.00,West,270,5.1,7.4,81,0.00,,,0.00,WUHU216HW,2013-09-14 07:32:00,
2013-09-14 00:36:00,66.8,60.5,0.00,NNW,338,0.4,5.1,80,0.00,,,0.00,WUHU216HW,2013-09-14 07:36:00,
2013-09-14 00:41:00,66.8,60.5,0.00,North,0,0.4,3.4,80,0.00,,,0.00,WUHU216HW,2013-09-14 07:41:00,
2013-09-14 00:46:00,66.8,60.9,0.00,ENE,68,0.9,2.7,81,0.00,,,0.00,WUHU216HW,2013-09-14 07:46:00,
2013-09-14 00:51:00,66.8,60.9,0.00,North,0,1.1,2.9,81,0.00,,,0.00,WUHU216HW,2013-09-14 07:51:00,
2013-09-14 00:56:00,66.6,60.7,0.00,NW,315,3.1,3.4,81,0.00,,,0.00,WUHU216HW,2013-09-14 07:56:00,
2013-09-14 01:01:00,66.6,60.7,0.00,NNE,23,1.1,3.4,81,0.00,,,0.00,WUHU216HW,2013-09-14 08:01:00,
2013-09-14 01:07:00,66.6,60.7,0.00,North,0,0.4,3.1,81,0.00,,,0.00,WUHU216HW,2013-09-14 08:07:00,
2013-09-14 01:12:00,66.6,60.9,0.00,NNW,338,0.7,3.8,82,0.00,,,0.00,WUHU216HW,2013-09-14 08:12:00,
2013-09-14 01:17:00,66.4,60.5,0.00,NE,45,0.0,3.8,81,0.00,,,0.00,WUHU216HW,2013-09-14 08:17:00,
2013-09-14 01:22:00,66.2,60.3,0.00,ENE,68,1.3,1.8,81,0.00,,,0.00,WUHU216HW,2013-09-14 08:22:00,
2013-09-14 01:27:00,66.2,60.3,0.00,ESE,113,0.0,1.3,81,0.00,,,0.00,WUHU216HW,2013-09-14 08:27:00,
2013-09-14 01:32:00,66.2,60.3,0.00,East,90,0.4,1.3,81,0.00,,,0.00,WUHU216HW,2013-09-14 08:32:00,
2013-09-14 01:37:00,66.2,60.3,0.00,NW,315,1.8,2.9,81,0.00,,,0.00,WUHU216HW,2013-09-14 08:37:00,
2013-09-14 01:42:00,66.2,60.3,0.00,NW,315,2.5,2.9,81,0.00,,,0.00,WUHU216HW,2013-09-14 08:42:00,
2013-09-14 01:47:00,66.2,59.9,0.00,ENE,68,0.0,2.5,80,0.00,,,0.00,WUHU216HW,2013-09-14 08:47:00,
2013-09-14 01:52:00,66.1,60.1,0.00,North,0,0.0,1.3,81,0.00,,,0.00,WUHU216HW,2013-09-14 08:52:00,
2013-09-14 01:57:00,66.1,60.1,0.00,SE,135,1.1,4.0,81,0.00,,,0.00,WUHU216HW,2013-09-14 08:57:00,
2013-09-14 02:02:00,66.1,59.8,0.00,West,270,0.4,4.0,80,0.00,,,0.00,WUHU216HW,2013-09-14 09:02:00,
2013-09-14 02:07:00,66.1,59.8,0.00,North,0,0.0,2.9,80,0.00,,,0.00,WUHU216HW,2013-09-14 09:07:00,
2013-09-14 02:12:00,66.2,59.9,0.00,North,0,0.0,2.9,80,0.00,,,0.00,WUHU216HW,2013-09-14 09:12:00,
2013-09-14 02:17:00,65.9,59.6,0.00,North,0,0.9,0.9,80,0.00,,,0.00,WUHU216HW,2013-09-14 09:17:00,
2013-09-14 02:22:00,65.9,60.2,0.00,NW,315,2.2,2.2,82,0.00,,,0.00,WUHU216HW,2013-09-14 09:22:00,
2013-09-14 02:27:00,65.7,60.0,0.00,North,0,0.2,2.2,82,0.00,,,0.00,WUHU216HW,2013-09-14 09:27:00,
2013-09-14 02:32:00,65.7,59.8,0.00,SW,225,2.5,2.5,81,0.00,,,0.00,WUHU216HW,2013-09-14 09:32:00,
2013-09-14 02:37:00,65.5,59.9,0.00,SE,135,0.4,2.5,82,0.00,,,0.00,WUHU216HW,2013-09-14 09:37:00,
2013-09-14 02:42:00,65.3,60.0,0.00,SE,135,1.1,2.2,83,0.00,,,0.00,WUHU216HW,2013-09-14 09:42:00,
2013-09-14 02:47:00,65.3,59.7,0.00,East,90,0.7,1.8,82,0.00,,,0.00,WUHU216HW,2013-09-14 09:47:00,
2013-09-14 02:52:00,65.3,59.7,0.00,WNW,293,0.7,1.8,82,0.00,,,0.00,WUHU216HW,2013-09-14 09:52:00,
2013-09-14 02:57:00,65.2,59.5,0.00,SE,135,0.4,1.3,82,0.00,,,0.00,WUHU216HW,2013-09-14 09:57:00,
2013-09-14 03:02:00,65.2,59.5,0.00,SSW,203,1.3,1.3,82,0.00,,,0.00,WUHU216HW,2013-09-14 10:02:00,
2013-09-14 03:07:00,64.8,59.9,0.00,North,0,0.4,2.9,84,0.00,,,0.00,WUHU216HW,2013-09-14 10:07:00,
2013-09-14 03:12:00,65.0,59.7,0.00,ESE,113,0.2,2.9,83,0.00,,,0.00,WUHU216HW,2013-09-14 10:12:00,
2013-09-14 03:17:00,65.0,59.7,0.00,NNW,338,0.0,0.9,83,0.00,,,0.00,WUHU216HW,2013-09-14 10:17:00,
2013-09-14 03:22:00,64.8,59.5,0.00,NNE,23,0.2,1.6,83,0.00,,,0.00,WUHU216HW,2013-09-14 10:22:00,
2013-09-14 03:27:00,65.0,59.7,0.00,SSE,158,2.5,2.5,83,0.00,,,0.00,WUHU216HW,2013-09-14 10:27:00,
2013-09-14 03:32:00,64.8,59.5,0.00,WNW,293,0.0,2.5,83,0.00,,,0.00,WUHU216HW,2013-09-14 10:32:00,
2013-09-14 03:37:00,64.8,59.9,0.00,WSW,248,0.9,1.8,84,0.00,,,0.00,WUHU216HW,2013-09-14 10:37:00,
2013-09-14 03:42:00,64.6,59.1,0.00,SE,135,0.2,1.8,82,0.00,,,0.00,WUHU216HW,2013-09-14 10:42:00,
2013-09-14 03:47:00,64.4,59.1,0.00,North,0,0.0,1.1,83,0.00,,,0.00,WUHU216HW,2013-09-14 10:47:00,
2013-09-14 03:52:00,64.4,59.1,0.00,NNE,23,0.2,1.1,83,0.00,,,0.00,WUHU216HW,2013-09-14 10:52:00,
2013-09-14 03:57:00,64.4,59.1,0.00,North,0,0.0,0.9,83,0.00,,,0.00,WUHU216HW,2013-09-14 10:57:00,
2013-09-14 04:04:00,64.4,58.9,0.00,North,0,0.0,0.9,82,0.00,,,0.00,WUHU216HW,2013-09-14 11:04:00,
2013-09-14 04:09:00,64.3,59.0,0.00,North,0,0.4,1.8,83,0.00,,,0.00,WUHU216HW,2013-09-14 11:09:00,
2013-09-14 04:14:00,64.3,59.0,0.00,SSW,203,0.0,1.6,83,0.00,,,0.00,WUHU216HW,2013-09-14 11:14:00,
2013-09-14 04:19:00,64.3,59.0,0.00,SSW,203,0.4,1.1,83,0.00,,,0.00,WUHU216HW,2013-09-14 11:19:00,
2013-09-14 04:24:00,64.1,58.8,0.00,North,0,0.2,1.1,83,0.00,,,0.00,WUHU216HW,2013-09-14 11:24:00,
2013-09-14 04:29:00,64.1,58.8,0.00,North,0,0.2,1.1,83,0.00,,,0.00,WUHU216HW,2013-09-14 11:29:00,
2013-09-14 04:34:00,64.1,58.8,0.00,North,0,0.0,0.9,83,0.00,,,0.00,WUHU216HW,2013-09-14 11:34:00,
2013-09-14 04:39:00,63.9,58.6,0.00,NW,315,0.9,0.9,83,0.00,,,0.00,WUHU216HW,2013-09-14 11:39:00,
2013-09-14 04:44:00,63.7,58.4,0.00,NNE,23,0.0,1.6,83,0.00,,,0.00,WUHU216HW,2013-09-14 11:44:00,
2013-09-14 04:49:00,63.5,58.2,0.00,WNW,293,0.0,1.8,83,0.00,,,0.00,WUHU216HW,2013-09-14 11:49:00,
2013-09-14 04:54:00,63.2,57.9,0.00,WNW,293,0.2,1.8,83,0.00,,,0.00,WUHU216HW,2013-09-14 11:54:00,
2013-09-14 04:59:00,62.8,57.5,0.00,NNW,338,0.2,1.8,83,0.00,,,0.00,WUHU216HW,2013-09-14 11:59:00,
2013-09-14 05:04:00,62.5,57.3,0.00,NNW,338,0.4,1.1,83,0.00,,,0.00,WUHU216HW,2013-09-14 12:04:00,
2013-09-14 05:09:00,62.3,57.1,0.00,NNW,338,0.7,1.1,83,0.00,,,0.00,WUHU216HW,2013-09-14 12:09:00,
2013-09-14 05:14:00,62.3,57.7,0.00,SE,135,0.4,0.9,85,0.00,,,0.00,WUHU216HW,2013-09-14 12:14:00,
2013-09-14 05:19:00,62.3,57.7,0.00,North,0,0.0,0.9,85,0.00,,,0.00,WUHU216HW,2013-09-14 12:19:00,
2013-09-14 05:24:00,62.5,57.5,0.00,North,0,0.0,0.2,84,0.00,,,0.00,WUHU216HW,2013-09-14 12:24:00,
2013-09-14 05:29:00,62.6,58.1,0.00,North,0,0.0,0.0,85,0.00,,,0.00,WUHU216HW,2013-09-14 12:29:00,
2013-09-14 05:34:00,62.6,58.1,0.00,North,0,0.0,0.0,85,0.00,,,0.00,WUHU216HW,2013-09-14 12:34:00,
2013-09-14 05:39:00,62.8,58.2,0.00,East,90,0.0,0.4,85,0.00,,,0.00,WUHU216HW,2013-09-14 12:39:00,
2013-09-14 05:44:00,62.8,58.2,0.00,ESE,113,0.0,0.4,85,0.00,,,0.00,WUHU216HW,2013-09-14 12:44:00,
2013-09-14 05:49:00,63.0,58.4,0.00,East,90,0.4,0.4,85,0.00,,,0.00,WUHU216HW,2013-09-14 12:49:00,
2013-09-14 05:54:00,63.0,58.4,0.00,WSW,248,0.7,1.1,85,0.00,,,0.00,WUHU216HW,2013-09-14 12:54:00,
2013-09-14 05:59:00,63.0,58.4,0.00,SSE,158,0.0,1.1,85,0.00,,,0.00,WUHU216HW,2013-09-14 12:59:00,
2013-09-14 06:04:00,63.4,58.8,0.00,SE,135,0.2,0.7,85,0.00,,,0.00,WUHU216HW,2013-09-14 13:04:00,
2013-09-14 06:09:00,63.4,58.4,0.00,WNW,293,0.0,1.1,84,0.00,,,0.00,WUHU216HW,2013-09-14 13:09:00,
2013-09-14 06:14:00,63.4,58.4,0.00,ESE,113,1.8,1.8,84,0.00,,,0.00,WUHU216HW,2013-09-14 13:14:00,
2013-09-14 06:19:00,63.4,58.8,0.00,SE,135,0.0,1.8,85,0.00,,,0.00,WUHU216HW,2013-09-14 13:19:00,
2013-09-14 06:24:00,63.4,58.8,0.00,SE,135,0.0,1.8,85,0.00,,,0.00,WUHU216HW,2013-09-14 13:24:00,
2013-09-14 06:29:00,63.4,58.8,0.00,East,90,0.4,1.3,85,0.00,,,0.00,WUHU216HW,2013-09-14 13:29:00,
2013-09-14 06:34:00,63.4,58.8,0.00,NNW,338,1.8,1.8,85,0.00,,,0.00,WUHU216HW,2013-09-14 13:34:00,
2013-09-14 06:39:00,63.4,58.8,0.00,ENE,68,0.0,1.8,85,0.00,,,0.00,WUHU216HW,2013-09-14 13:39:00,
2013-09-14 06:44:00,63.5,59.0,0.00,SE,135,0.0,1.1,85,0.00,,,0.00,WUHU216HW,2013-09-14 13:44:00,
2013-09-14 06:49:00,63.5,58.6,0.00,ESE,113,0.0,1.1,84,0.00,,,0.00,WUHU216HW,2013-09-14 13:49:00,
2013-09-14 06:54:00,63.7,58.8,0.00,ESE,113,0.0,1.1,84,0.00,,,0.00,WUHU216HW,2013-09-14 13:54:00,
2013-09-14 06:59:00,63.7,58.8,0.00,SE,135,0.0,0.4,84,0.00,,,0.00,WUHU216HW,2013-09-14 13:59:00,
2013-09-14 07:04:00,63.7,58.8,0.00,SE,135,0.0,0.4,84,0.00,,,0.00,WUHU216HW,2013-09-14 14:04:00,
2013-09-14 07:09:00,63.7,58.8,0.00,SE,135,0.4,0.4,84,0.00,,,0.00,WUHU216HW,2013-09-14 14:09:00,
2013-09-14 07:14:00,64.1,58.8,0.00,SE,135,0.0,0.4,83,0.00,,,0.00,WUHU216HW,2013-09-14 14:14:00,
2013-09-14 07:19:00,64.1,58.8,0.00,SE,135,0.0,0.0,83,0.00,,,0.00,WUHU216HW,2013-09-14 14:19:00,
2013-09-14 07:24:00,63.9,58.6,0.00,SE,135,0.0,0.0,83,0.00,,,0.00,WUHU216HW,2013-09-14 14:24:00,
2013-09-14 07:29:00,63.9,58.6,0.00,SE,135,0.0,0.0,83,0.00,,,0.00,WUHU216HW,2013-09-14 14:29:00,
2013-09-14 07:34:00,64.1,58.8,0.00,ESE,113,0.0,0.4,83,0.00,,,0.00,WUHU216HW,2013-09-14 14:34:00,
2013-09-14 07:39:00,64.4,59.1,0.00,ESE,113,0.4,0.4,83,0.00,,,0.00,WUHU216HW,2013-09-14 14:39:00,
2013-09-14 07:44:00,64.3,59.0,0.00,SSW,203,0.7,1.1,83,0.00,,,0.00,WUHU216HW,2013-09-14 14:44:00,
2013-09-14 07:49:00,64.1,58.8,0.00,SE,135,0.0,1.1,83,0.00,,,0.00,WUHU216HW,2013-09-14 14:49:00,
2013-09-14 07:54:00,64.4,59.1,0.00,SE,135,0.2,0.2,83,0.00,,,0.00,WUHU216HW,2013-09-14 14:54:00,
2013-09-14 07:59:00,64.4,59.1,0.00,SW,225,0.0,0.4,83,0.00,,,0.00,WUHU216HW,2013-09-14 14:59:00,
2013-09-14 08:04:00,64.6,59.3,0.00,South,180,1.1,1.1,83,0.00,,,0.00,WUHU216HW,2013-09-14 15:04:00,
2013-09-14 08:09:00,64.6,59.3,0.00,WNW,293,0.2,1.1,83,0.00,,,0.00,WUHU216HW,2013-09-14 15:09:00,
2013-09-14 08:14:00,64.4,59.1,0.00,NNW,338,0.0,1.1,83,0.00,,,0.00,WUHU216HW,2013-09-14 15:14:00,
2013-09-14 08:19:00,64.6,59.1,0.00,ESE,113,0.0,1.1,82,0.00,,,0.00,WUHU216HW,2013-09-14 15:19:00,
2013-09-14 08:24:00,64.8,59.5,0.00,SE,135,0.0,0.4,83,0.00,,,0.00,WUHU216HW,2013-09-14 15:24:00,
2013-09-14 08:29:00,65.0,59.7,0.00,SSE,158,0.7,0.7,83,0.00,,,0.00,WUHU216HW,2013-09-14 15:29:00,
2013-09-14 08:34:00,65.2,59.9,0.00,SE,135,0.0,0.7,83,0.00,,,0.00,WUHU216HW,2013-09-14 15:34:00,
2013-09-14 08:39:00,65.2,59.5,0.00,SE,135,0.4,0.9,82,0.00,,,0.00,WUHU216HW,2013-09-14 15:39:00,
2013-09-14 08:44:00,65.3,59.7,0.00,North,0,0.0,0.9,82,0.00,,,0.00,WUHU216HW,2013-09-14 15:44:00,
2013-09-14 08:49:00,65.5,59.9,0.00,NNW,338,0.9,1.8,82,0.00,,,0.00,WUHU216HW,2013-09-14 15:49:00,
2013-09-14 08:54:00,65.5,59.9,0.00,West,270,2.9,2.9,82,0.00,,,0.00,WUHU216HW,2013-09-14 15:54:00,
2013-09-14 08:59:00,65.3,59.7,0.00,WSW,248,1.8,3.4,82,0.00,,,0.00,WUHU216HW,2013-09-14 15:59:00,
2013-09-14 09:04:00,65.2,59.9,0.00,SSW,203,0.7,3.4,83,0.00,,,0.00,WUHU216HW,2013-09-14 16:04:00,
2013-09-14 09:09:00,65.3,60.0,0.00,NW,315,1.3,3.4,83,0.00,,,0.00,WUHU216HW,2013-09-14 16:09:00,
2013-09-14 09:14:00,65.7,60.4,0.00,NNW,338,0.4,3.1,83,0.00,,,0.00,WUHU216HW,2013-09-14 16:14:00,
2013-09-14 09:19:00,65.7,60.0,0.00,NW,315,3.4,3.8,82,0.00,,,0.00,WUHU216HW,2013-09-14 16:19:00,
2013-09-14 09:24:00,65.9,60.2,0.00,NW,315,3.4,3.8,82,0.00,,,0.00,WUHU216HW,2013-09-14 16:24:00,
2013-09-14 09:29:00,66.1,60.4,0.00,North,0,0.0,3.4,82,0.00,,,0.00,WUHU216HW,2013-09-14 16:29:00,
2013-09-14 09:34:00,66.2,60.6,0.00,NNW,338,1.1,2.0,82,0.00,,,0.00,WUHU216HW,2013-09-14 16:34:00,
2013-09-14 09:39:00,66.6,60.7,0.00,North,0,0.4,2.5,81,0.00,,,0.00,WUHU216HW,2013-09-14 16:39:00,
2013-09-14 09:44:00,66.8,60.9,0.00,NW,315,3.1,3.1,81,0.00,,,0.00,WUHU216HW,2013-09-14 16:44:00,
2013-09-14 09:49:00,67.0,60.7,0.00,NNW,338,5.4,5.4,80,0.00,,,0.00,WUHU216HW,2013-09-14 16:49:00,
2013-09-14 09:54:00,67.1,60.8,0.00,NW,315,0.2,5.4,80,0.00,,,0.00,WUHU216HW,2013-09-14 16:54:00,
2013-09-14 09:59:00,67.3,61.0,0.00,SW,225,2.5,4.0,80,0.00,,,0.00,WUHU216HW,2013-09-14 16:59:00,
2013-09-14 10:04:00,67.7,61.0,0.00,NNE,23,2.5,2.5,79,0.00,,,0.00,WUHU216HW,2013-09-14 17:04:00,
2013-09-14 10:09:00,67.9,60.9,0.00,WNW,293,1.6,3.4,78,0.00,,,0.00,WUHU216HW,2013-09-14 17:09:00,
2013-09-14 10:14:00,68.0,61.0,0.00,NW,315,0.4,3.4,78,0.00,,,0.00,WUHU216HW,2013-09-14 17:14:00,
2013-09-14 10:19:00,68.2,61.1,0.00,North,0,0.4,1.8,78,0.00,,,0.00,WUHU216HW,2013-09-14 17:19:00,
2013-09-14 10:24:00,68.4,60.9,0.00,NW,315,4.7,4.7,77,0.00,,,0.00,WUHU216HW,2013-09-14 17:24:00,
2013-09-14 10:29:00,68.8,61.3,0.00,NNW,338,2.5,4.7,77,0.00,,,0.00,WUHU216HW,2013-09-14 17:29:00,
2013-09-14 10:34:00,68.9,61.4,0.00,WNW,293,1.8,4.0,77,0.00,,,0.00,WUHU216HW,2013-09-14 17:34:00,
2013-09-14 10:39:00,69.3,61.0,0.00,South,180,2.2,2.5,75,0.00,,,0.00,WUHU216HW,2013-09-14 17:39:00,
2013-09-14 10:44:00,69.7,61.3,0.00,WSW,248,0.4,2.2,75,0.00,,,0.00,WUHU216HW,2013-09-14 17:44:00,
2013-09-14 10:49:00,70.2,61.8,0.00,SSW,203,0.2,2.2,75,0.00,,,0.00,WUHU216HW,2013-09-14 17:49:00,
2013-09-14 10:54:00,70.7,62.0,0.00,South,180,0.4,1.1,74,0.00,,,0.00,WUHU216HW,2013-09-14 17:54:00,
2013-09-14 10:59:00,71.1,62.0,0.00,NW,315,1.1,2.5,73,0.00,,,0.00,WUHU216HW,2013-09-14 17:59:00,
2013-09-14 11:04:00,71.6,62.1,0.00,SSW,203,1.3,2.7,72,0.00,,,0.00,WUHU216HW,2013-09-14 18:04:00,
2013-09-14 11:09:00,72.0,62.5,0.00,ESE,113,0.4,2.7,72,0.00,,,0.00,WUHU216HW,2013-09-14 18:09:00,
2013-09-14 11:14:00,72.4,62.5,0.00,SSW,203,1.6,3.8,71,0.00,,,0.00,WUHU216HW,2013-09-14 18:14:00,
2013-09-14 11:19:00,72.5,62.3,0.00,SSW,203,2.9,3.8,70,0.00,,,0.00,WUHU216HW,2013-09-14 18:19:00,
2013-09-14 11:24:00,72.7,62.8,0.00,SE,135,1.3,2.9,71,0.00,,,0.00,WUHU216HW,2013-09-14 18:24:00,
2013-09-14 11:29:00,73.6,62.0,0.00,SE,135,1.3,2.5,67,0.00,,,0.00,WUHU216HW,2013-09-14 18:29:00,
2013-09-14 11:34:00,74.5,63.3,0.00,South,180,0.7,3.4,68,0.00,,,0.00,WUHU216HW,2013-09-14 18:34:00,
2013-09-14 11:39:00,75.2,62.6,0.00,SW,225,1.8,3.4,65,0.00,,,0.00,WUHU216HW,2013-09-14 18:39:00,
2013-09-14 11:44:00,75.6,62.1,0.00,SW,225,1.1,2.0,63,0.00,,,0.00,WUHU216HW,2013-09-14 18:44:00,
2013-09-14 11:49:00,75.6,63.0,0.00,SSE,158,1.6,2.5,65,0.00,,,0.00,WUHU216HW,2013-09-14 18:49:00,
2013-09-14 11:54:00,76.0,62.9,0.00,ENE,68,0.2,2.5,64,0.00,,,0.00,WUHU216HW,2013-09-14 18:54:00,
2013-09-14 11:59:00,76.3,61.9,0.00,NW,315,2.0,2.0,61,0.00,,,0.00,WUHU216HW,2013-09-14 18:59:00,
2013-09-14 12:04:00,76.7,62.2,0.00,SE,135,1.1,2.0,61,0.00,,,0.00,WUHU216HW,2013-09-14 19:04:00,
2013-09-14 12:09:00,77.4,62.9,0.00,West,270,0.4,2.7,61,0.00,,,0.00,WUHU216HW,2013-09-14 19:09:00,
2013-09-14 12:14:00,78.1,63.6,0.00,South,180,2.7,4.0,61,0.00,,,0.00,WUHU216HW,2013-09-14 19:14:00,
2013-09-14 12:19:00,79.0,63.0,0.00,South,180,2.5,4.0,58,0.00,,,0.00,WUHU216HW,2013-09-14 19:19:00,
2013-09-14 12:24:00,79.4,62.3,0.00,NW,315,0.4,2.5,56,0.00,,,0.00,WUHU216HW,2013-09-14 19:24:00,
2013-09-14 12:29:00,79.7,62.1,0.00,SW,225,1.8,2.2,55,0.00,,,0.00,WUHU216HW,2013-09-14 19:29:00,
2013-09-14 12:34:00,80.1,63.5,0.00,SE,135,0.9,2.9,57,0.00,,,0.00,WUHU216HW,2013-09-14 19:34:00,
2013-09-14 12:39:00,81.0,62.2,0.00,SSE,158,2.5,2.9,53,0.00,,,0.00,WUHU216HW,2013-09-14 19:39:00,
2013-09-14 12:44:00,81.5,62.6,0.00,SSE,158,0.4,2.5,53,0.00,,,0.00,WUHU216HW,2013-09-14 19:44:00,
2013-09-14 12:49:00,81.9,63.0,0.00,South,180,3.8,3.8,53,0.00,,,0.00,WUHU216HW,2013-09-14 19:49:00,
2013-09-14 12:54:00,82.3,62.8,0.00,SE,135,0.4,3.8,52,0.00,,,0.00,WUHU216HW,2013-09-14 19:54:00,
2013-09-14 12:59:00,82.6,62.7,0.00,SW,225,0.0,2.5,51,0.00,,,0.00,WUHU216HW,2013-09-14 19:59:00,
2013-09-14 13:04:00,82.8,62.8,0.00,SE,135,1.8,2.5,51,0.00,,,0.00,WUHU216HW,2013-09-14 20:04:00,
2013-09-14 13:09:00,83.2,63.7,0.00,SSE,158,2.0,2.5,52,0.00,,,0.00,WUHU216HW,2013-09-14 20:09:00,
2013-09-14 13:14:00,83.7,63.7,0.00,SSE,158,0.4,3.1,51,0.00,,,0.00,WUHU216HW,2013-09-14 20:14:00,
2013-09-14 13:19:00,84.2,63.1,0.00,SSE,158,0.4,3.1,49,0.00,,,0.00,WUHU216HW,2013-09-14 20:19:00,
2013-09-14 13:24:00,84.6,63.5,0.00,SW,225,1.1,3.6,49,0.00,,,0.00,WUHU216HW,2013-09-14 20:24:00,
2013-09-14 13:29:00,84.6,63.5,0.00,East,90,2.0,3.6,49,0.00,,,0.00,WUHU216HW,2013-09-14 20:29:00,
2013-09-14 13:34:00,85.1,63.3,0.00,SE,135,1.1,2.7,48,0.00,,,0.00,WUHU216HW,2013-09-14 20:34:00,
2013-09-14 13:39:00,85.3,62.8,0.00,South,180,2.0,3.8,47,0.00,,,0.00,WUHU216HW,2013-09-14 20:39:00,
2013-09-14 13:44:00,85.5,64.3,0.00,SSE,158,1.8,3.8,49,0.00,,,0.00,WUHU216HW,2013-09-14 20:44:00,
2013-09-14 13:49:00,86.0,62.8,0.00,South,180,3.4,3.4,46,0.00,,,0.00,WUHU216HW,2013-09-14 20:49:00,
2013-09-14 13:54:00,86.4,63.2,0.00,SSE,158,1.8,3.6,46,0.00,,,0.00,WUHU216HW,2013-09-14 20:54:00,
2013-09-14 13:59:00,86.8,65.3,0.00,SE,135,1.8,3.6,49,0.00,,,0.00,WUHU216HW,2013-09-14 20:59:00,
2013-09-14 14:04:00,86.8,63.5,0.00,SSE,158,3.4,4.3,46,0.00,,,0.00,WUHU216HW,2013-09-14 21:04:00,
2013-09-14 14:09:00,86.8,64.1,0.00,SE,135,3.1,4.3,47,0.00,,,0.00,WUHU216HW,2013-09-14 21:09:00,
2013-09-14 14:14:00,86.8,62.8,0.00,SSW,203,3.1,3.6,45,0.00,,,0.00,WUHU216HW,2013-09-14 21:14:00,
2013-09-14 14:19:00,86.8,63.5,0.00,South,180,1.3,3.4,46,0.00,,,0.00,WUHU216HW,2013-09-14 21:19:00,
2013-09-14 14:24:00,87.3,63.4,0.00,SE,135,0.7,3.4,45,0.00,,,0.00,WUHU216HW,2013-09-14 21:24:00,
2013-09-14 14:29:00,87.8,63.2,0.00,East,90,0.9,2.5,44,0.00,,,0.00,WUHU216HW,2013-09-14 21:29:00,
2013-09-14 14:34:00,88.2,62.8,0.00,SSE,158,2.5,3.4,43,0.00,,,0.00,WUHU216HW,2013-09-14 21:34:00,
2013-09-14 14:39:00,88.7,63.9,0.00,SE,135,0.9,3.4,44,0.00,,,0.00,WUHU216HW,2013-09-14 21:39:00,
2013-09-14 14:44:00,89.1,62.9,0.00,SSE,158,1.1,3.4,42,0.00,,,0.00,WUHU216HW,2013-09-14 21:44:00,
2013-09-14 14:49:00,89.3,62.5,0.00,South,180,2.7,3.4,41,0.00,,,0.00,WUHU216HW,2013-09-14 21:49:00,
2013-09-14 14:54:00,88.9,62.2,0.00,South,180,0.4,3.4,41,0.00,,,0.00,WUHU216HW,2013-09-14 21:54:00,
2013-09-14 14:59:00,89.3,63.1,0.00,SSE,158,0.4,3.4,42,0.00,,,0.00,WUHU216HW,2013-09-14 21:59:00,
2013-09-14 15:04:00,89.6,63.4,0.00,SE,135,0.2,2.0,42,0.00,,,0.00,WUHU216HW,2013-09-14 22:04:00,
2013-09-14 15:09:00,90.5,65.5,0.00,SE,135,2.0,2.0,44,0.00,,,0.00,WUHU216HW,2013-09-14 22:09:00,
2013-09-14 15:14:00,90.9,63.9,0.00,South,180,1.3,2.5,41,0.00,,,0.00,WUHU216HW,2013-09-14 22:14:00,
2013-09-14 15:19:00,90.9,65.2,0.00,South,180,0.4,2.5,43,0.00,,,0.00,WUHU216HW,2013-09-14 22:19:00,
2013-09-14 15:24:00,91.4,65.7,0.00,SE,135,1.1,2.5,43,0.00,,,0.00,WUHU216HW,2013-09-14 22:24:00,
2013-09-14 15:29:00,91.4,63.7,0.00,WSW,248,0.7,2.0,40,0.00,,,0.00,WUHU216HW,2013-09-14 22:29:00,
2013-09-14 15:34:00,90.9,63.9,0.00,SSE,158,0.2,2.0,41,0.00,,,0.00,WUHU216HW,2013-09-14 22:34:00,
2013-09-14 15:39:00,90.5,63.5,0.00,West,270,0.4,2.2,41,0.00,,,0.00,WUHU216HW,2013-09-14 22:39:00,
2013-09-14 15:44:00,90.4,64.1,0.00,SSE,158,0.7,2.2,42,0.00,,,0.00,WUHU216HW,2013-09-14 22:44:00,
2013-09-14 15:49:00,91.1,62.7,0.00,SSW,203,0.4,2.2,39,0.00,,,0.00,WUHU216HW,2013-09-14 22:49:00,
2013-09-14 15:51:00,91.4,63.7,0.00,SSE,158,0.9,2.2,40,0.00,,,0.00,WUHU216HW,2013-09-14 22:51:00,
2013-09-14 15:56:00,91.8,64.1,0.00,South,180,2.0,2.2,40,0.00,,,0.00,WUHU216HW,2013-09-14 22:56:00,
2013-09-14 16:01:00,92.0,63.5,0.00,South,180,0.7,2.2,39,0.00,,,0.00,WUHU216HW,2013-09-14 23:01:00,
2013-09-14 16:06:00,92.5,63.9,0.00,SSE,158,0.0,2.0,39,0.00,,,0.00,WUHU216HW,2013-09-14 23:06:00,
2013-09-14 16:11:00,92.9,64.2,0.00,SSW,203,0.9,1.8,39,0.00,,,0.00,WUHU216HW,2013-09-14 23:11:00,
2013-09-14 16:16:00,92.9,65.0,0.00,South,180,0.4,1.6,40,0.00,,,0.00,WUHU216HW,2013-09-14 23:16:00,
2013-09-14 16:21:00,92.2,63.5,0.00,SW,225,2.0,2.0,39,0.00,,,0.00,WUHU216HW,2013-09-14 23:21:00,
2013-09-14 16:26:00,91.3,62.7,0.00,SSW,203,1.6,2.0,39,0.00,,,0.00,WUHU216HW,2013-09-14 23:26:00,
2013-09-14 16:31:00,90.7,63.1,0.00,SW,225,1.1,2.2,40,0.00,,,0.00,WUHU216HW,2013-09-14 23:31:00,
2013-09-14 16:36:00,90.4,63.4,0.00,NNE,23,0.4,3.4,41,0.00,,,0.00,WUHU216HW,2013-09-14 23:36:00,
2013-09-14 16:41:00,90.2,63.9,0.00,SSW,203,0.9,3.4,42,0.00,,,0.00,WUHU216HW,2013-09-14 23:41:00,
2013-09-14 16:46:00,89.6,64.1,0.00,West,270,1.1,2.5,43,0.00,,,0.00,WUHU216HW,2013-09-14 23:46:00,
2013-09-14 16:51:00,89.3,63.7,0.00,NW,315,1.8,2.7,43,0.00,,,0.00,WUHU216HW,2013-09-14 23:51:00,
2013-09-14 16:56:00,88.6,63.8,0.00,WNW,293,0.4,2.9,44,0.00,,,0.00,WUHU216HW,2013-09-14 23:56:00,
2013-09-14 17:01:00,88.2,64.1,0.00,North,0,0.9,2.9,45,0.00,,,0.00,WUHU216HW,2013-09-15 00:01:00,
2013-09-14 17:06:00,88.2,64.7,0.00,NW,315,0.2,2.9,46,0.00,,,0.00,WUHU216HW,2013-09-15 00:06:00,
2013-09-14 17:11:00,88.2,64.7,0.00,WSW,248,0.4,2.7,46,0.00,,,0.00,WUHU216HW,2013-09-15 00:11:00,
2013-09-14 17:16:00,88.2,64.7,0.00,NW,315,0.9,1.1,46,0.00,,,0.00,WUHU216HW,2013-09-15 00:16:00,
2013-09-14 17:21:00,87.7,64.9,0.00,SE,135,1.8,2.5,47,0.00,,,0.00,WUHU216HW,2013-09-15 00:21:00,
2013-09-14 17:26:00,86.4,64.5,0.00,NW,315,3.4,4.9,48,0.00,,,0.00,WUHU216HW,2013-09-15 00:26:00,
2013-09-14 17:31:00,85.3,64.1,0.00,North,0,2.5,4.9,49,0.00,,,0.00,WUHU216HW,2013-09-15 00:31:00,
2013-09-14 17:36:00,84.6,64.5,0.00,NW,315,1.8,4.7,51,0.00,,,0.00,WUHU216HW,2013-09-15 00:36:00,
2013-09-14 17:41:00,83.9,63.9,0.00,WNW,293,2.0,4.7,51,0.00,,,0.00,WUHU216HW,2013-09-15 00:41:00,
2013-09-14 17:46:00,83.3,63.9,0.00,WNW,293,1.3,7.2,52,0.00,,,0.00,WUHU216HW,2013-09-15 00:46:00,
2013-09-14 17:51:00,82.8,63.8,0.00,WNW,293,1.8,7.2,53,0.00,,,0.00,WUHU216HW,2013-09-15 00:51:00,
2013-09-14 17:56:00,82.6,63.6,0.00,NW,315,3.4,5.4,53,0.00,,,0.00,WUHU216HW,2013-09-15 00:56:00,
2013-09-14 18:01:00,82.3,63.8,0.00,NW,315,1.8,6.3,54,0.00,,,0.00,WUHU216HW,2013-09-15 01:01:00,
2013-09-14 18:06:00,81.9,63.6,0.00,NW,315,0.4,6.3,54,0.00,,,0.00,WUHU216HW,2013-09-15 01:06:00,
2013-09-14 18:11:00,81.7,63.9,0.00,NW,315,2.5,5.1,55,0.00,,,0.00,WUHU216HW,2013-09-15 01:11:00,
2013-09-14 18:16:00,81.7,63.9,0.00,NNW,338,1.8,5.1,55,0.00,,,0.00,WUHU216HW,2013-09-15 01:16:00,
2013-09-14 18:21:00,81.7,63.9,0.00,West,270,0.7,3.1,55,0.00,,,0.00,WUHU216HW,2013-09-15 01:21:00,
2013-09-14 18:26:00,81.5,64.3,0.00,NW,315,4.0,4.0,56,0.00,,,0.00,WUHU216HW,2013-09-15 01:26:00,
2013-09-14 18:31:00,80.8,64.1,0.00,West,270,1.1,6.3,57,0.00,,,0.00,WUHU216HW,2013-09-15 01:31:00,
2013-09-14 18:36:00,80.6,64.0,0.00,WNW,293,1.6,6.3,57,0.00,,,0.00,WUHU216HW,2013-09-15 01:36:00,
2013-09-14 18:41:00,80.5,63.8,0.00,NW,315,1.1,5.4,57,0.00,,,0.00,WUHU216HW,2013-09-15 01:41:00,
2013-09-14 18:46:00,80.3,64.2,0.00,NW,315,1.8,4.7,58,0.00,,,0.00,WUHU216HW,2013-09-15 01:46:00,
2013-09-14 18:51:00,79.7,64.2,0.00,NNW,338,1.3,4.7,59,0.00,,,0.00,WUHU216HW,2013-09-15 01:51:00,
2013-09-14 18:56:00,79.6,64.0,0.00,NNW,338,1.1,4.7,59,0.00,,,0.00,WUHU216HW,2013-09-15 01:56:00,
2013-09-14 19:01:00,79.2,64.3,0.00,NW,315,2.7,4.7,60,0.00,,,0.00,WUHU216HW,2013-09-15 02:01:00,
2013-09-14 19:06:00,78.8,64.4,0.00,WNW,293,1.1,3.4,61,0.00,,,0.00,WUHU216HW,2013-09-15 02:06:00,
2013-09-14 19:11:00,78.5,64.0,0.00,WNW,293,1.8,2.7,61,0.00,,,0.00,WUHU216HW,2013-09-15 02:11:00,
2013-09-14 19:16:00,78.3,64.3,0.00,NE,45,0.2,4.9,62,0.00,,,0.00,WUHU216HW,2013-09-15 02:16:00,
2013-09-14 19:21:00,78.1,64.5,0.00,WNW,293,4.0,4.9,63,0.00,,,0.00,WUHU216HW,2013-09-15 02:21:00,
2013-09-14 19:26:00,77.8,64.2,0.00,NW,315,4.7,4.7,63,0.00,,,0.00,WUHU216HW,2013-09-15 02:26:00,
2013-09-14 19:31:00,77.4,64.3,0.00,NNW,338,3.6,6.3,64,0.00,,,0.00,WUHU216HW,2013-09-15 02:31:00,
2013-09-14 19:36:00,77.2,64.5,0.00,NW,315,2.7,6.3,65,0.00,,,0.00,WUHU216HW,2013-09-15 02:36:00,
2013-09-14 19:41:00,77.0,64.4,0.00,West,270,1.3,3.6,65,0.00,,,0.00,WUHU216HW,2013-09-15 02:41:00,
2013-09-14 19:46:00,76.9,64.2,0.00,SW,225,1.8,2.5,65,0.00,,,0.00,WUHU216HW,2013-09-15 02:46:00,
2013-09-14 19:51:00,76.7,64.4,0.00,NNW,338,1.8,3.6,66,0.00,,,0.00,WUHU216HW,2013-09-15 02:51:00,
2013-09-14 19:56:00,76.7,64.4,0.00,SW,225,4.0,4.0,66,0.00,,,0.00,WUHU216HW,2013-09-15 02:56:00,
2013-09-14 20:01:00,76.3,64.1,0.00,North,0,3.4,4.0,66,0.00,,,0.00,WUHU216HW,2013-09-15 03:01:00,
2013-09-14 20:06:00,76.0,64.2,0.00,North,0,0.7,7.2,67,0.00,,,0.00,WUHU216HW,2013-09-15 03:06:00,
2013-09-14 20:11:00,76.0,64.2,0.00,SW,225,1.3,7.2,67,0.00,,,0.00,WUHU216HW,2013-09-15 03:11:00,
2013-09-14 20:16:00,75.8,64.4,0.00,NW,315,2.5,3.6,68,0.00,,,0.00,WUHU216HW,2013-09-15 03:16:00,
2013-09-14 20:21:00,75.6,64.3,0.00,West,270,1.8,3.6,68,0.00,,,0.00,WUHU216HW,2013-09-15 03:21:00,
2013-09-14 20:26:00,75.6,63.8,0.00,West,270,0.9,2.5,67,0.00,,,0.00,WUHU216HW,2013-09-15 03:26:00,
2013-09-14 20:31:00,75.4,63.7,0.00,WNW,293,0.4,1.8,67,0.00,,,0.00,WUHU216HW,2013-09-15 03:31:00,
2013-09-14 20:36:00,75.2,63.9,0.00,NNW,338,1.6,1.8,68,0.00,,,0.00,WUHU216HW,2013-09-15 03:36:00,
2013-09-14 20:41:00,75.2,63.9,0.00,WSW,248,1.1,1.6,68,0.00,,,0.00,WUHU216HW,2013-09-15 03:41:00,
2013-09-14 20:46:00,75.1,63.8,0.00,South,180,0.9,1.1,68,0.00,,,0.00,WUHU216HW,2013-09-15 03:46:00,
2013-09-14 20:51:00,74.9,63.6,0.00,ENE,68,0.4,1.8,68,0.00,,,0.00,WUHU216HW,2013-09-15 03:51:00,
2013-09-14 20:56:00,74.7,64.4,0.00,SW,225,1.6,1.8,70,0.00,,,0.00,WUHU216HW,2013-09-15 03:56:00,
2013-09-14 21:01:00,74.5,64.2,0.00,ENE,68,0.2,1.6,70,0.00,,,0.00,WUHU216HW,2013-09-15 04:01:00,
2013-09-14 21:06:00,74.5,63.7,0.00,SE,135,0.4,1.6,69,0.00,,,0.00,WUHU216HW,2013-09-15 04:06:00,
2013-09-14 21:11:00,74.3,63.5,0.00,WSW,248,0.2,0.9,69,0.00,,,0.00,WUHU216HW,2013-09-15 04:11:00,
2013-09-14 21:16:00,74.3,63.5,0.00,NW,315,0.0,1.8,69,0.00,,,0.00,WUHU216HW,2013-09-15 04:16:00,
2013-09-14 21:21:00,74.2,63.8,0.00,NW,315,1.1,2.9,70,0.00,,,0.00,WUHU216HW,2013-09-15 04:21:00,
2013-09-14 21:26:00,74.2,63.8,0.00,ENE,68,0.4,2.9,70,0.00,,,0.00,WUHU216HW,2013-09-15 04:26:00,
2013-09-14 21:31:00,74.0,63.6,0.00,SSE,158,0.2,1.6,70,0.00,,,0.00,WUHU216HW,2013-09-15 04:31:00,
2013-09-14 21:36:00,74.0,63.6,0.00,West,270,1.1,2.2,70,0.00,,,0.00,WUHU216HW,2013-09-15 04:36:00,
2013-09-14 21:41:00,73.8,63.6,0.00,NW,315,0.7,2.2,70,0.00,,,0.00,WUHU216HW,2013-09-15 04:41:00,
2013-09-14 21:46:00,73.8,63.9,0.00,NW,315,0.4,3.4,71,0.00,,,0.00,WUHU216HW,2013-09-15 04:46:00,
2013-09-14 21:51:00,73.8,63.9,0.00,NW,315,1.3,3.4,71,0.00,,,0.00,WUHU216HW,2013-09-15 04:51:00,
2013-09-14 21:56:00,73.6,63.7,0.00,WNW,293,0.9,1.8,71,0.00,,,0.00,WUHU216HW,2013-09-15 04:56:00,
2013-09-14 22:01:00,73.6,63.4,0.00,West,270,1.1,1.3,70,0.00,,,0.00,WUHU216HW,2013-09-15 05:01:00,
2013-09-14 22:06:00,73.4,63.5,0.00,NW,315,1.6,1.6,71,0.00,,,0.00,WUHU216HW,2013-09-15 05:06:00,
2013-09-14 22:11:00,73.4,63.2,0.00,WNW,293,0.4,1.6,70,0.00,,,0.00,WUHU216HW,2013-09-15 05:11:00,
2013-09-14 22:16:00,73.1,62.8,0.00,NW,315,1.1,1.1,70,0.00,,,0.00,WUHU216HW,2013-09-15 05:16:00,
2013-09-14 22:21:00,72.4,62.1,0.00,NW,315,0.0,1.1,70,0.00,,,0.00,WUHU216HW,2013-09-15 05:21:00,
2013-09-14 22:26:00,72.0,62.1,0.00,NW,315,0.0,0.4,71,0.00,,,0.00,WUHU216HW,2013-09-15 05:26:00,
2013-09-14 22:31:00,71.6,61.4,0.00,NW,315,0.4,1.1,70,0.00,,,0.00,WUHU216HW,2013-09-15 05:31:00,
2013-09-14 22:36:00,71.5,61.2,0.00,NNE,23,0.0,1.1,70,0.00,,,0.00,WUHU216HW,2013-09-15 05:36:00,
2013-09-14 22:41:00,71.5,61.6,0.00,NNE,23,0.0,0.9,71,0.00,,,0.00,WUHU216HW,2013-09-15 05:41:00,
2013-09-14 22:46:00,71.1,60.8,0.00,NNW,338,1.6,1.8,70,0.00,,,0.00,WUHU216HW,2013-09-15 05:46:00,